{"data":{"norad_id":37951,"epoch":"2026-09-19T18:43:09.607584Z","epoch_age_seconds":80365,"freshness":"FRESH","line1":"1 37951U 11074B   26262.77997231 -.00000050  00000+0  00000+0 0  9995","line2":"2 37951   8.9871  72.3958 0004041 124.8795 249.1798  1.00274105 54008","mean_motion":1.00274105,"eccentricity":0.0004041,"inclination_deg":8.9871,"raan_deg":72.3958,"arg_perigee_deg":124.8795,"mean_anomaly_deg":249.1798,"bstar":0,"rev_number":5400,"period_min":1436.0636776564,"perigee_km":35768.90608814,"apogee_km":35802.983098884,"semimajor_km":42164.081593512,"source":"CELESTRAK","updated_at":"2026-09-20T09:00:46.833683Z"}}